Kuiper-00089

operational
NORAD ID: 64834 Int'l Des: 2025-151 Owner: KUIP Country: US Constellation: kuiper
LEOCIRCULAR

About Kuiper-00089

Description loading...

Live Position

Loading 3D Globe...

Upcoming Passes

Altitude History

Altitude vs Time

uPlot chart will show altitude changes over time

Two-Line Element Set

1 64834U 25151U 25308.93976003 -.00210489 00000-0 -23569-1 0 9996
2 64834 51.8966 117.1387 0002708 206.2651 153.8178 14.87682558 17048
Epoch: Nov 4, 2025 • Age: 66 hours

Current Status

Altitude 611.7 km
Velocity 7.55 km/s
Sub-Earth Point -3.36°S, 165.09°E
Launch Date Jul 16, 2025
Age 0.3 years
Type internet

Technical Details

Classification Payload
Mass 490.00 kg
Dry Mass 490.00 kg
Total Mass 490.00 kg
Length 1.80 m
Diameter 0.70 m
Span 5.00 m
Shape Box + 2 pan
Manufacturer KUIP
Bus Type Kuiper
Phase Status In Orbit
Owner/State KUIP/US

Large Constellations

Loading constellations...